Location: Tamazert
(32.6352°N, 5.2072°W)
Time: 18:45:34
(UTC+00:00)

Vanguard 3 - Pass Details

Date: 07 October 2022
Orbit: 509 x 3255 km, 33.3° (Epoch: 01 December)

Event Time Altitude Azimuth Distance (km) Brightness Sun altitude
Rises 15:22:45 0° 262° (W) 4,568 12.0 30.1°
Reaches altitude 10° 15:27:23 10° 240° (WSW) 4,109 12.4 29.3°
Maximum altitude 15:33:04 15° 210° (SSW) 4,279 12.0 28.2°
Drops below altitude 10° 15:40:10 10° 182° (S) 5,303 11.8 26.9°
Sets 15:48:04 0° 163° (SSE) 6,823 12.0 25.4°
